Regional Weather Roundup
Issued by NWS

Home | Current Version | Previous Version | Text Only | Print | Product List | Glossary Off
Versions: 1 2 3 4 5 6 7 8 9 10 11 12 13 14 15 16 17 18 19 20 21 22 23 24 25 26 27 28 29 30 31 32 33 34 35 36 37 38 39 40 41 42 43 44 45 46 47 48 49 50

000
ASUS43 KLSX 040459
RWRMO

WEATHER SUMMARY FOR MISSOURI
NATIONAL WEATHER SERVICE SPRINGFIELD MO
1200 AM CDT SAT JUL 04 2015

NOTE: "FAIR" INDICATES FEW OR NO CLOUDS BELOW 12,000 FEET WITH NO
       SIGNIFICANT WEATHER AND/OR OBSTRUCTIONS TO VISIBILITY.
       CURRENT SKY AND/OR WEATHER CONDITIONS ARE NOT AVAILABLE FOR
       CHILLICOTHE AND FARMINGTON.

MOZ001>031-035>038-043-044-053-054-040600-
...NORTHERN AND WESTERN MISSOURI...

CITY           SKY/WX    TMP DP  RH WIND       PRES   REMARKS
KANSAS CTY INT CLEAR     69  59  70 E6        30.00R
KANSAS C DTWN  CLEAR     70  60  70 NE3       29.99R
LEE`S SUMMIT   CLEAR     67  60  78 CALM      30.00R
ST JOSEPH      CLEAR     65  61  87 CALM      30.00R
CHILLICOTHE      N/A     64  62  93 CALM      30.00R
KIRKSVILLE     CLEAR     61  59  93 CALM      30.00R FOG

$$
MOZ066>068-077>081-088>096-101>105-040600-
...SOUTHWEST MISSOURI...

CITY           SKY/WX    TMP DP  RH WIND       PRES   REMARKS
SPRINGFIELD    CLEAR     71  66  84 NE5       29.97R
JOPLIN         CLEAR     70  68  93 NE5       29.97R

$$
MOZ032>034-039>042-045>050-055>058-069>072-040600-
...CENTRAL MISSOURI...

CITY           SKY/WX    TMP DP  RH WIND       PRES   REMARKS
COLUMBIA       CLEAR     66  61  84 NE6       29.98R
JEFFERSON CITY CLEAR     67  63  87 CALM      29.97R
ROLLA          CLEAR     65  63  93 N3        29.97R
SEDALIA        CLEAR     67  63  87 CALM      30.00R
OSAGE BEACH    CLEAR     66  63  88 NE3       29.97S

$$
MOZ051-052-059>065-040600-
...EAST CENTRAL MISSOURI...

CITY           SKY/WX    TMP DP  RH WIND       PRES   REMARKS
ST LOUIS INTL  CLEAR     74  65  73 NE5       29.96R
SPIRIT OF STL  CLEAR     67  66  97 CALM      29.95R FOG
ST CHARLES     CLEAR     72  68  87 CALM      29.95R

$$
MOZ072>076-082>087-097>100-106>115-040600-
...SOUTH CENTRAL AND SOUTHEAST MISSOURI...

CITY           SKY/WX    TMP DP  RH WIND       PRES   REMARKS
CAPE GIRARDEAU CLEAR     70  69  97 CALM      29.92R
FARMINGTON     CLEAR     66  64  94 CALM      29.99S
POPLAR BLUFF   PTCLDY    71  69  93 NW5       29.91S
WEST PLAINS    CLEAR     69  66  90 N5        29.96F

$$


USA.gov is the U.S. government's official web portal to all federal, state and local government web resources and services.